Dewpoint
11 12 14 16 16 15 15 17 19 20 21 24 28 29 31 31 29 26 27 31 32 34 35 34 35 33 32 32 34 34 34 35 35 34 34 33 32 36 40 42 44 45 45 46 45 44 45 45 45 45 45 45 45 45 45 46 48 54 56 57 57 57 57 55 54 54 53 53 53 53 53 53 54 54
12 14 16 16 14 14 15 17 18 19 20 22 26 30 33 33 30 30 28 29 34 34 34 34 34 34 33 33 33 33 32 35 34 33 33 33 32 35 38 40 42 44 45 46 45 44 44 45 45 45 45 45 45 46 45 45 46 52 54 54 58 57 56 55 54 54 53 53 53 53 53 53 54 54
13 14 16 14 13 15 16 16 17 18 19 21 25 30 32 34 34 32 31 29 33 35 34 35 34 35 36 33 33 34 33 33 34 33 33 33 34 35 36 38 40 42 44 44 45 45 44 44 45 44 45 45 44 45 46 45 45 49 53 54 56 57 56 55 54 54 52 52 53 54 54 53 53 53
14 15 13 13 14 15 16 17 18 18 19 22 25 28 31 34 35 35 33 31 31 36 37 38 38 38 37 34 33 33 34 34 34 32 33 33 34 34 33 37 39 40 42 43 44 44 44 44 45 44 43 44 45 45 44 44 44 47 51 53 55 56 56 56 56 55 53 53 54 54 55 54 54 53
14 12 13 14 15 16 17 17 17 17 20 22 25 28 31 34 35 35 33 32 32 34 36 38 39 40 38 35 34 33 33 34 33 33 32 34 34 34 33 34 37 39 41 43 43 44 44 44 45 45 43 43 44 44 43 44 45 48 49 50 53 56 56 57 56 55 53 54 54 55 55 54 54 53
11 12 13 14 15 16 16 17 17 17 20 22 24 26 28 32 35 36 34 33 33 32 33 37 39 39 39 37 37 34 33 34 33 32 32 34 33 33 33 34 35 37 39 42 43 43 44 44 44 45 44 44 44 43 44 45 45 45 46 48 49 53 56 56 55 54 53 54 55 55 55 55 55 54
11 11 13 13 13 15 16 16 16 18 21 21 21 23 27 30 35 36 36 34 32 32 33 35 36 38 38 38 38 37 35 34 34 32 32 33 35 34 33 34 36 36 38 41 43 43 43 43 43 44 44 44 44 44 44 43 44 44 45 46 48 49 53 54 54 55 54 53 55 56 55 55 55 54
9 12 13 12 13 15 15 16 17 19 19 18 20 23 26 28 32 35 36 36 34 33 33 33 35 36 37 37 39 38 37 35 34 34 35 36 35 35 35 34 35 37 39 40 41 42 43 43 43 43 43 43 44 44 43 43 44 45 43 44 46 48 49 51 52 54 53 54 54 55 55 55 55 54
9 11 12 12 14 15 15 17 16 16 17 17 19 21 24 26 28 31 34 34 35 33 33 34 34 36 36 36 38 38 35 34 35 35 36 37 37 36 35 36 37 37 39 39 40 41 42 42 42 42 42 42 42 43 43 43 43 45 45 46 47 49 49 50 51 51 51 51 53 54 54 54 53 52
10 10 12 13 14 15 15 15 16 16 16 17 19 21 23 25 27 28 31 33 33 33 33 34 34 35 36 36 36 37 36 36 35 34 34 35 35 34 33 34 38 38 38 38 39 39 40 41 42 43 42 42 42 42 42 42 42 42 44 45 46 47 48 49 50 50 50 50 50 51 52 51 51 50
9 10 12 13 14 14 15 15 16 16 17 18 19 21 23 24 26 27 29 32 32 33 33 34 35 35 36 36 36 37 37 37 36 36 35 34 34 33 34 33 35 37 38 38 38 39 40 40 40 41 41 42 43 42 41 42 42 41 42 44 45 46 47 48 49 49 49 49 49 50 50 50 51 50
7 9 10 11 12 14 15 16 17 17 17 18 19 20 22 23 25 26 28 31 32 32 33 33 33 34 35 35 36 36 36 34 35 35 34 34 33 34 34 34 34 34 36 36 37 38 39 40 40 41 41 41 42 42 42 41 40 40 42 43 44 44 46 47 47 49 49 49 49 49 50 49 50 50
6 5 7 9 11 13 17 18 19 20 21 20 19 20 21 22 23 26 27 30 32 32 32 32 33 33 34 34 35 35 35 34 35 35 33 33 34 33 33 34 34 34 35 35 35 36 37 39 40 40 41 41 40 40 40 40 39 41 42 43 43 43 44 47 46 47 48 48 49 48 48 49 49 49
3 3 4 7 13 14 16 17 19 20 21 22 21 20 21 22 23 25 26 28 31 32 32 32 32 32 32 33 33 33 35 34 34 35 35 34 33 33 33 33 33 34 35 34 34 34 35 37 37 38 40 41 40 40 41 42 41 41 42 43 43 43 43 46 46 46 47 48 48 48 48 48 48 49
3 3 3 4 8 12 13 15 18 19 21 22 22 22 23 24 24 24 26 26 29 30 32 32 32 32 32 32 34 34 34 34 34 34 34 34 34 34 33 33 33 33 35 33 33 33 34 35 35 36 37 39 39 40 40 40 41 42 43 43 42 42 42 43 44 44 45 45 46 47 48 48 48 47
3 2 2 3 6 7 9 12 12 16 20 21 21 21 21 22 24 25 26 24 24 27 29 31 32 32 32 33 33 33 33 33 33 33 34 34 34 34 34 34 33 33 35 34 33 33 34 33 34 34 35 36 38 40 40 40 41 42 43 43 43 42 42 41 42 42 43 43 44 45 46 46 47 47
2 1 2 3 5 6 14 13 12 17 16 19 19 19 20 20 22 23 24 26 25 26 27 28 30 31 32 32 33 34 34 34 33 33 33 33 34 34 34 34 33 33 35 35 33 33 33 33 33 33 34 35 36 37 40 41 41 42 43 43 43 43 43 42 41 41 41 41 42 43 43 44 44 45
2 1 4 5 6 7 8 11 15 15 15 13 12 12 14 15 17 20 22 23 24 25 25 27 28 30 32 32 33 34 35 33 33 33 33 33 33 33 34 34 33 33 35 35 34 33 33 33 33 33 33 35 35 35 37 40 41 41 42 43 43 43 43 43 43 42 41 40 40 42 43 43 44 44
3 3 4 5 6 8 11 13 16 15 15 12 12 12 13 14 14 15 17 18 21 23 24 27 29 30 32 33 34 35 35 35 35 35 34 34 34 34 33 33 33 33 34 34 34 34 33 33 33 33 34 34 35 36 37 39 41 42 42 42 42 43 43 43 43 43 42 41 41 40 41 42 43 44
4 4 5 6 7 11 10 16 19 19 14 10 11 11 11 12 12 14 18 22 23 23 24 27 29 31 32 33 34 34 36 35 34 33 33 33 33 33 33 32 33 33 33 33 34 33 33 34 35 34 34 34 34 34 36 38 40 41 42 41 42 42 42 42 42 43 42 42 42 41 40 40 40 41
4 3 6 7 10 12 11 16 19 19 17 9 10 10 11 10 11 12 12 18 22 24 25 27 28 31 32 33 34 34 35 35 35 33 33 32 33 33 32 32 32 32 32 33 34 33 33 33 34 34 33 34 34 34 34 36 39 40 41 41 41 41 41 42 42 42 42 42 42 42 41 40 39 38
4 4 12 12 11 11 11 18 18 19 15 9 9 9 9 9 10 10 10 11 14 20 22 24 26 29 31 31 32 33 34 34 35 33 32 32 33 32 32 32 32 32 32 32 33 33 33 33 33 33 32 33 33 34 34 34 36 39 39 41 41 41 41 41 41 42 42 42 42 42 42 40 38 38
5 3 8 13 14 13 14 18 19 19 15 8 8 8 9 9 9 9 8 9 12 12 14 17 21 25 28 29 30 32 32 33 34 34 34 33 33 32 32 32 32 31 32 32 33 33 32 33 33 33 32 32 32 32 34 34 34 36 36 37 39 39 40 40 40 41 41 42 42 42 42 40 39 38
4 3 5 7 16 17 17 17 18 18 18 10 8 8 8 8 9 8 6 9 10 10 13 15 18 19 20 20 22 26 28 28 29 32 34 33 33 32 32 32 32 31 32 32 34 33 32 33 33 33 32 32 32 31 32 33 34 35 35 35 36 38 38 38 39 40 41 41 42 42 42 41 39 38
2 3 5 6 14 16 16 16 17 18 17 16 8 9 9 10 11 10 5 6 12 9 11 13 14 14 15 17 19 21 22 23 25 27 29 32 33 33 32 32 32 32 31 32 35 33 32 33 33 32 32 32 32 31 31 32 32 33 35 36 36 35 36 37 38 38 39 40 41 41 41 41 40 39
2 3 5 6 13 16 16 16 16 17 16 16 8 9 16 16 15 5 4 4 5 6 7 9 10 10 10 11 13 15 16 18 21 24 27 29 32 34 34 33 32 31 32 32 35 34 32 32 33 32 32 32 31 31 31 30 31 32 33 34 35 35 36 36 36 36 37 39 39 40 40 41 41 40
1 4 5 7 14 15 16 15 15 15 15 13 10 16 15 14 13 7 1 3 2 3 4 5 5 6 7 8 9 11 12 15 19 22 26 29 32 33 33 34 34 33 32 33 33 34 33 32 32 32 32 32 31 30 30 30 30 31 32 32 33 33 35 36 36 36 36 37 37 39 40 41 41 40
2 4 5 8 14 15 15 14 13 13 13 8 15 14 13 11 9 1 -0 -0 0 1 2 2 2 3 5 5 7 9 11 14 17 21 25 27 30 32 33 33 33 34 34 33 33 33 33 33 32 33 32 32 32 31 30 29 31 31 31 31 32 33 34 34 35 34 35 36 36 37 38 38 39 40
2 10 13 13 12 12 13 11 10 7 9 12 12 12 11 7 -0 -0 -2 -2 -2 -2 -1 -0 1 1 3 4 6 9 11 14 16 18 21 24 27 30 32 33 33 33 33 33 32 33 33 33 33 32 32 32 32 31 31 30 30 30 31 31 30 31 33 33 34 34 34 35 36 37 38 38 37 37
9 10 10 10 9 8 6 -2 -2 -2 -0 9 9 9 6 -3 -2 -0 -2 -3 -3 -3 -2 -1 -1 -0 1 3 5 8 9 10 12 14 16 19 23 26 28 32 33 31 31 32 33 33 33 33 33 32 32 32 32 32 31 30 28 30 31 31 31 32 32 33 33 33 33 34 35 36 37 37 38 38
-5 -3 0 1 4 3 6 5 5 4 2 -4 -4 -5 -4 -4 -3 -2 -1 -3 -4 -3 -3 -3 -2 -1 0 2 3 4 5 7 9 12 14 16 20 23 26 29 31 32 31 31 32 33 33 33 32 33 32 32 32 32 32 31 30 30 31 31 31 31 31 32 32 33 33 34 34 34 35 36 36 36
-7 -8 1 -3 -9 -9 -9 -9 -9 -9 -8 -7 -7 -7 -5 -6 -4 -0 4 3 -3 -4 -3 -3 -3 -2 -1 -1 0 2 4 5 8 10 12 15 18 21 25 28 30 32 32 31 31 32 33 33 33 33 33 32 32 32 32 32 31 30 30 31 31 30 32 32 32 32 33 33 33 34 34 35 35 36
-9 -10 -11 -11 -11 -11 -11 -11 -11 -11 -10 -10 -9 -8 -5 -7 -6 -6 -5 -5 -5 -4 -4 -5 -4 -4 -4 -2 -0 1 2 4 6 8 11 15 17 20 24 26 29 31 31 32 32 33 33 33 33 33 33 33 32 32 32 31 31 30 30 31 31 30 30 32 33 33 33 33 33 33 33 34 34 35
-11 -12 -12 -13 -13 -13 -13 -13 -12 -12 -12 -11 -11 -10 -2 -8 -8 -7 -6 -5 -5 -4 -4 -5 -4 -5 -4 -4 -3 -1 1 3 5 8 13 13 16 18 20 22 25 29 32 32 32 32 32 32 32 32 33 33 33 32 32 32 31 31 30 31 31 30 29 31 32 33 33 33 33 33 33 33 33 33
-12 -13 -13 -13 -13 -13 -13 -13 -13 -13 -13 -12 -12 -12 -10 -10 -9 -8 -7 -5 -5 -5 -5 -5 -4 -4 -5 -5 -3 -2 -0 2 3 7 10 11 12 14 17 19 21 25 29 32 32 32 32 32 32 32 32 32 32 33 32 32 32 31 31 31 31 31 30 31 31 32 33 33 33 32 33 32 32 32
-13 -13 -14 -14 -14 -14 -14 -14 -13 -13 -13 -13 -13 -12 -12 -11 -10 -9 -8 -5 -7 -7 -6 -6 -5 -5 -5 -4 -4 -3 -2 1 3 5 6 7 9 11 13 16 19 21 24 27 32 32 32 32 32 31 29 29 30 29 31 31 32 32 32 31 30 30 31 31 31 32 32 32 32 32 32 32 32 32
-13 -13 -14 -14 -14 -14 -14 -14 -14 -14 -14 -13 -13 -13 -12 -12 -11 -10 -7 -6 -7 -7 -6 -7 -7 -6 -5 -5 -4 -3 -3 -1 1 3 4 5 6 8 10 13 15 17 19 22 26 32 32 32 32 31 29 29 28 28 29 31 31 32 32 32 31 31 31 31 31 31 31 32 31 31 31 31 31 32
-13 -13 -14 -14 -14 -14 -14 -14 -14 -14 -14 -14 -14 -13 -12 -12 -11 -10 -8 -8 -8 -8 -8 -8 -7 -6 -6 -5 -6 -5 -4 -2 -0 1 2 3 4 6 8 10 12 14 17 19 24 28 32 32 32 31 30 28 28 28 28 30 31 32 32 32 32 32 31 31 30 30 30 30 31 31 30 30 31 31
-13 -13 -13 -14 -14 -14 -14 -14 -14 -14 -14 -14 -14 -13 -13 -13 -12 -11 -9 -9 -9 -10 -10 -9 -8 -7 -7 -7 -6 -5 -4 -4 -3 -1 -0 1 3 5 6 9 10 12 14 16 19 23 29 32 32 31 31 29 28 28 29 29 29 32 32 32 33 32 32 31 30 30 30 30 30 28 29 29 29 30
-12 -12 -13 -13 -13 -13 -14 -14 -14 -14 -14 -14 -14 -13 -13 -13 -13 -11 -10 -9 -10 -10 -10 -10 -9 -8 -9 -8 -7 -6 -6 -4 -3 -2 -2 -1 2 4 6 8 9 10 11 13 16 18 21 25 27 28 30 31 31 31 30 31 29 30 32 32 32 32 32 31 31 30 29 30 29 29 28 26 28 26
-13 -14 -13 -13 -13 -13 -13 -14 -14 -14 -14 -14 -14 -10 -13 -13 -13 -11 -10 -10 -10 -12 -12 -11 -11 -10 -10 -9 -8 -7 -7 -6 -5 -4 -3 -1 1 2 5 7 6 8 9 10 12 14 16 19 22 25 28 31 32 31 30 28 27 26 27 28 31 32 32 31 32 31 30 29 30 30 29 28 27 26
-13 -14 -13 -13 -13 -13 -13 -14 -13 -14 -14 -14 -14 -14 -14 -13 -13 -7 -11 -11 -12 -12 -12 -12 -12 -11 -11 -10 -9 -8 -8 -6 -6 -6 -5 -3 -2 -2 2 5 5 6 7 8 9 11 14 18 21 24 28 31 31 30 28 28 28 26 26 28 27 31 32 31 31 31 32 31 30 27 26 25 26 25
-13 -13 -13 -13 -13 -13 -13 -13 -14 -14 -14 -14 -14 -14 -14 -14 -14 -14 -14 -13 -13 -13 -13 -13 -12 -12 -12 -11 -10 -9 -9 -7 -7 -7 -6 -4 -3 -3 -1 2 4 5 6 8 9 11 13 16 18 20 25 30 31 30 29 29 29 28 26 26 28 27 30 31 32 31 31 31 31 31 30 29 27 26
-13 -13 -13 -13 -13 -13 -13 -13 -13 -13 -13 -14 -13 -14 -14 -14 -14 -14 -14 -13 -13 -13 -13 -13 -13 -13 -13 -12 -10 -10 -9 -8 -8 -8 -7 -5 -4 -4 -2 -1 2 3 5 7 8 9 11 12 14 17 21 26 30 30 29 29 30 30 29 29 28 26 29 30 30 31 31 31 30 30 30 30 30 29
-13 -13 -13 -13 -13 -13 -13 -13 -13 -13 -13 -13 -13 -14 -13 -14 -14 -14 -14 -13 -13 -13 -13 -13 -13 -13 -13 -12 -11 -12 -10 -5 -7 -8 -7 -6 -6 -5 -4 -3 -1 2 4 6 6 7 8 10 13 16 21 24 28 29 30 30 30 30 30 30 27 26 27 28 28 29 30 31 31 31 31 30 30 30